Location: Springfield
(37.2150°N, 93.2980°W)
Time: 13:16:50
(UTC-05:00)

Cosmos 1190 Rocket - Pass Details

Date: 19 April 2018
Orbit: 756 x 781 km, 74.1° (Epoch: 20 September)

Event Time Altitude Azimuth Distance (km) Brightness Sun altitude
Rises 22:27:55 0° 344° (NNW) 3,262 8.1 -27.9°
Reaches altitude 10° 22:30:19 10° 346° (NNW) 2,327 7.2 -28.2°
Enters shadow 22:34:40 58° 11° (N) 900 4.4 -28.9°
